"Date","Average Accumulated Water Year PPT (in)","Average SWE (in)"
10/01/1981,0.003,0.000
10/02/1981,0.397,0.000
10/03/1981,0.443,0.000
10/04/1981,0.451,0.000
10/05/1981,0.475,0.000
10/06/1981,0.634,0.000
10/07/1981,0.809,0.000
10/08/1981,0.812,0.000
10/09/1981,0.813,0.000
10/10/1981,0.813,0.000
10/11/1981,0.814,0.000
10/12/1981,0.815,0.000
10/13/1981,0.815,0.000
10/14/1981,0.815,0.000
10/15/1981,0.815,0.000
10/16/1981,0.858,0.000
10/17/1981,0.870,0.000
10/18/1981,0.953,0.000
10/19/1981,1.298,0.000
10/20/1981,1.333,0.011
10/21/1981,1.333,0.000
10/22/1981,1.334,0.000
10/23/1981,1.633,0.000
10/24/1981,1.815,0.001
10/25/1981,1.815,0.001
10/26/1981,2.165,0.000
10/27/1981,3.395,0.000
10/28/1981,3.741,0.000
10/29/1981,3.750,0.000
10/30/1981,3.750,0.000
10/31/1981,3.750,0.000
11/01/1981,3.750,0.000
11/02/1981,3.750,0.000
11/03/1981,3.750,0.000
11/04/1981,3.750,0.000
11/05/1981,3.750,0.000
11/06/1981,4.319,0.000
11/07/1981,4.505,0.009
11/08/1981,4.506,0.009
11/09/1981,4.506,0.005
11/10/1981,4.642,0.002
11/11/1981,4.642,0.000
11/12/1981,4.642,0.000
11/13/1981,4.642,0.000
11/14/1981,4.642,0.000
11/15/1981,4.642,0.000
11/16/1981,4.642,0.000
11/17/1981,4.642,0.000
11/18/1981,4.679,0.000
11/19/1981,4.680,0.000
11/20/1981,4.917,0.000
11/21/1981,5.102,0.040
11/22/1981,5.222,0.133
11/23/1981,5.229,0.137
11/24/1981,5.308,0.185
11/25/1981,5.394,0.224
11/26/1981,5.394,0.224
11/27/1981,5.413,0.120
11/28/1981,5.413,0.073
11/29/1981,5.414,0.073
11/30/1981,5.414,0.073
12/01/1981,5.638,0.136
12/02/1981,5.874,0.080
12/03/1981,5.888,0.068
12/04/1981,5.896,0.065
12/05/1981,6.191,0.144
12/06/1981,6.292,0.217
12/07/1981,6.292,0.217
12/08/1981,6.564,0.143
12/09/1981,6.826,0.413
12/10/1981,6.927,0.500
12/11/1981,7.090,0.658
12/12/1981,7.108,0.671
12/13/1981,7.109,0.671
12/14/1981,7.112,0.672
12/15/1981,7.334,0.783
12/16/1981,7.473,0.878
12/17/1981,7.484,0.888
12/18/1981,7.745,1.062
12/19/1981,7.815,1.137
12/20/1981,7.887,1.195
12/21/1981,7.890,1.198
12/22/1981,8.218,1.353
12/23/1981,8.613,0.903
12/24/1981,8.625,0.772
12/25/1981,8.625,0.768
12/26/1981,8.625,0.768
12/27/1981,8.627,0.767
12/28/1981,8.639,0.765
12/29/1981,8.757,0.747
12/30/1981,8.770,0.755
12/31/1981,8.776,0.757
01/01/1982,8.997,0.765
01/02/1982,9.002,0.768
01/03/1982,9.113,0.791
01/04/1982,9.665,0.640
01/05/1982,9.752,0.562
01/06/1982,9.752,0.562
01/07/1982,9.990,0.529
01/08/1982,10.085,0.598
01/09/1982,10.096,0.605
01/10/1982,10.242,0.785
01/11/1982,10.252,0.791
01/12/1982,10.255,0.794
01/13/1982,10.285,0.817
01/14/1982,10.495,1.065
01/15/1982,10.538,1.108
01/16/1982,10.670,1.280
01/17/1982,10.779,1.388
01/18/1982,10.807,1.416
01/19/1982,10.807,1.416
01/20/1982,10.870,1.425
01/21/1982,11.176,1.387
01/22/1982,11.182,1.375
01/23/1982,12.251,1.615
01/24/1982,12.388,1.636
01/25/1982,12.417,1.656
01/26/1982,12.593,1.906
01/27/1982,12.595,1.907
01/28/1982,12.595,1.907
01/29/1982,12.595,1.862
01/30/1982,12.601,1.863
01/31/1982,12.625,1.382
02/01/1982,12.934,1.241
02/02/1982,12.935,1.242
02/03/1982,13.383,1.280
02/04/1982,13.626,1.210
02/05/1982,13.627,1.211
02/06/1982,13.661,1.222
02/07/1982,13.667,1.230
02/08/1982,13.667,1.230
02/09/1982,14.018,1.540
02/10/1982,14.222,1.668
02/11/1982,14.222,1.668
02/12/1982,14.222,1.668
02/13/1982,14.312,1.733
02/14/1982,14.320,1.737
02/15/1982,14.320,1.650
02/16/1982,14.460,1.338
02/17/1982,14.697,1.176
02/18/1982,14.991,1.222
02/19/1982,15.270,1.235
02/20/1982,15.385,1.247
02/21/1982,15.554,1.186
02/22/1982,15.663,1.254
02/23/1982,15.667,1.255
02/24/1982,15.669,1.166
02/25/1982,15.688,1.162
02/26/1982,15.688,1.163
02/27/1982,15.688,1.163
02/28/1982,15.732,1.206
03/01/1982,15.732,1.187
03/02/1982,15.733,1.137
03/03/1982,15.989,1.253
03/04/1982,15.992,1.254
03/05/1982,16.293,1.133
03/06/1982,16.295,1.133
03/07/1982,16.798,1.410
03/08/1982,17.068,1.718
03/09/1982,17.117,1.737
03/10/1982,17.117,1.738
03/11/1982,17.117,1.416
03/12/1982,17.783,1.123
03/13/1982,17.789,0.950
03/14/1982,17.974,0.832
03/15/1982,18.112,0.802
03/16/1982,18.245,0.816
03/17/1982,19.082,0.742
03/18/1982,19.082,0.677
03/19/1982,19.084,0.599
03/20/1982,19.769,0.521
03/21/1982,20.140,0.453
03/22/1982,20.154,0.381
03/23/1982,20.154,0.381
03/24/1982,20.154,0.373
03/25/1982,20.161,0.330
03/26/1982,20.545,0.284
03/27/1982,20.657,0.375
03/28/1982,20.669,0.382
03/29/1982,20.670,0.382
03/30/1982,20.670,0.283
03/31/1982,20.842,0.212
04/01/1982,21.065,0.152
04/02/1982,21.066,0.130
04/03/1982,21.182,0.092
04/04/1982,21.541,0.075
04/05/1982,21.558,0.085
04/06/1982,21.906,0.126
04/07/1982,22.031,0.236
04/08/1982,22.037,0.238
04/09/1982,22.252,0.338
04/10/1982,22.362,0.385
04/11/1982,22.363,0.364
04/12/1982,22.363,0.345
04/13/1982,22.368,0.142
04/14/1982,22.390,0.068
04/15/1982,22.390,0.055
04/16/1982,22.390,0.037
04/17/1982,22.394,0.020
04/18/1982,22.591,0.013
04/19/1982,22.591,0.012
04/20/1982,22.592,0.010
04/21/1982,22.633,0.006
04/22/1982,22.633,0.006
04/23/1982,22.633,0.006
04/24/1982,22.633,0.006
04/25/1982,22.637,0.004
04/26/1982,22.765,0.002
04/27/1982,22.861,0.001
04/28/1982,22.972,0.001
04/29/1982,22.972,0.001
04/30/1982,22.972,0.000
05/01/1982,22.973,0.000
05/02/1982,22.985,0.000
05/03/1982,22.985,0.000
05/04/1982,22.985,0.000
05/05/1982,22.985,0.000
05/06/1982,22.985,0.000
05/07/1982,22.986,0.000
05/08/1982,23.317,0.000
05/09/1982,23.507,0.000
05/10/1982,23.507,0.000
05/11/1982,23.507,0.000
05/12/1982,23.507,0.000
05/13/1982,23.507,0.000
05/14/1982,23.521,0.000
05/15/1982,23.521,0.000
05/16/1982,23.521,0.000
05/17/1982,23.521,0.000
05/18/1982,23.521,0.000
05/19/1982,23.554,0.000
05/20/1982,23.996,0.000
05/21/1982,24.386,0.000
05/22/1982,24.614,0.000
05/23/1982,24.836,0.000
05/24/1982,25.004,0.000
05/25/1982,25.149,0.000
05/26/1982,25.151,0.000
05/27/1982,25.301,0.000
05/28/1982,25.417,0.000
05/29/1982,25.681,0.000
05/30/1982,26.222,0.000
05/31/1982,26.399,0.000
06/01/1982,26.412,0.000
06/02/1982,26.632,0.000
06/03/1982,26.637,0.000
06/04/1982,26.846,0.000
06/05/1982,27.764,0.000
06/06/1982,28.316,0.000
06/07/1982,28.445,0.000
06/08/1982,28.445,0.000
06/09/1982,28.452,0.000
06/10/1982,28.732,0.000
06/11/1982,29.004,0.000
06/12/1982,29.006,0.000
06/13/1982,29.627,0.000
06/14/1982,29.879,0.000
06/15/1982,29.879,0.000
06/16/1982,29.887,0.000
06/17/1982,30.434,0.000
06/18/1982,30.444,0.000
06/19/1982,30.445,0.000
06/20/1982,30.545,0.000
06/21/1982,30.558,0.000
06/22/1982,30.560,0.000
06/23/1982,30.661,0.000
06/24/1982,30.661,0.000
06/25/1982,30.661,0.000
06/26/1982,30.661,0.000
06/27/1982,30.667,0.000
06/28/1982,30.754,0.000
06/29/1982,31.115,0.000
06/30/1982,31.647,0.000
07/01/1982,31.737,0.000
07/02/1982,31.737,0.000
07/03/1982,31.992,0.000
07/04/1982,33.716,0.000
07/05/1982,33.841,0.000
07/06/1982,33.902,0.000
07/07/1982,33.903,0.000
07/08/1982,34.100,0.000
07/09/1982,34.284,0.000
07/10/1982,34.304,0.000
07/11/1982,34.379,0.000
07/12/1982,34.483,0.000
07/13/1982,34.483,0.000
07/14/1982,34.487,0.000
07/15/1982,34.537,0.000
07/16/1982,34.550,0.000
07/17/1982,34.584,0.000
07/18/1982,34.652,0.000
07/19/1982,34.702,0.000
07/20/1982,35.217,0.000
07/21/1982,35.533,0.000
07/22/1982,35.533,0.000
07/23/1982,35.625,0.000
07/24/1982,35.638,0.000
07/25/1982,35.638,0.000
07/26/1982,35.638,0.000
07/27/1982,35.642,0.000
07/28/1982,35.714,0.000
07/29/1982,36.502,0.000
07/30/1982,36.514,0.000
07/31/1982,36.608,0.000
08/01/1982,36.609,0.000
08/02/1982,36.614,0.000
08/03/1982,36.775,0.000
08/04/1982,36.775,0.000
08/05/1982,36.886,0.000
08/06/1982,36.900,0.000
08/07/1982,36.905,0.000
08/08/1982,36.967,0.000
08/09/1982,37.590,0.000
08/10/1982,37.804,0.000
08/11/1982,37.979,0.000
08/12/1982,38.262,0.000
08/13/1982,38.262,0.000
08/14/1982,38.262,0.000
08/15/1982,38.262,0.000
08/16/1982,38.262,0.000
08/17/1982,38.285,0.000
08/18/1982,38.632,0.000
08/19/1982,38.632,0.000
08/20/1982,38.634,0.000
08/21/1982,39.136,0.000
08/22/1982,39.163,0.000
08/23/1982,39.167,0.000
08/24/1982,39.408,0.000
08/25/1982,39.885,0.000
08/26/1982,39.998,0.000
08/27/1982,40.007,0.000
08/28/1982,40.149,0.000
08/29/1982,40.149,0.000
08/30/1982,40.149,0.000
08/31/1982,40.171,0.000
09/01/1982,40.436,0.000
09/02/1982,40.753,0.000
09/03/1982,41.329,0.000
09/04/1982,41.329,0.000
09/05/1982,41.329,0.000
09/06/1982,41.329,0.000
09/07/1982,41.329,0.000
09/08/1982,41.331,0.000
09/09/1982,41.334,0.000
09/10/1982,41.334,0.000
09/11/1982,41.334,0.000
09/12/1982,41.334,0.000
09/13/1982,41.334,0.000
09/14/1982,41.334,0.000
09/15/1982,41.386,0.000
09/16/1982,41.426,0.000
09/17/1982,41.426,0.000
09/18/1982,41.426,0.000
09/19/1982,41.459,0.000
09/20/1982,41.460,0.000
09/21/1982,41.539,0.000
09/22/1982,42.358,0.000
09/23/1982,42.401,0.000
09/24/1982,42.403,0.000
09/25/1982,42.405,0.000
09/26/1982,42.463,0.000
09/27/1982,43.370,0.000
09/28/1982,43.526,0.000
09/29/1982,43.550,0.000
09/30/1982,43.550,0.000
10/01/1982,0.000,0.000
10/02/1982,0.000,0.000
10/03/1982,0.000,0.000
10/04/1982,0.000,0.000
10/05/1982,0.000,0.000
10/06/1982,0.000,0.000
10/07/1982,0.002,0.000
10/08/1982,0.018,0.000
10/09/1982,0.107,0.000
10/10/1982,0.322,0.000
10/11/1982,0.365,0.000
10/12/1982,0.369,0.000
10/13/1982,0.554,0.000
10/14/1982,0.727,0.000
10/15/1982,0.739,0.000
10/16/1982,0.885,0.000
10/17/1982,0.906,0.001
10/18/1982,0.906,0.000
10/19/1982,0.906,0.000
10/20/1982,0.910,0.000
10/21/1982,1.217,0.000
10/22/1982,1.217,0.000
10/23/1982,1.217,0.000
10/24/1982,1.217,0.000
10/25/1982,1.223,0.001
10/26/1982,1.255,0.006
10/27/1982,1.255,0.004
10/28/1982,1.255,0.001
10/29/1982,1.255,0.000
10/30/1982,1.260,0.000
10/31/1982,1.281,0.000
11/01/1982,1.300,0.000
11/02/1982,1.310,0.000
11/03/1982,1.323,0.000
11/04/1982,1.936,0.000
11/05/1982,2.387,0.005
11/06/1982,2.389,0.006
11/07/1982,2.389,0.006
11/08/1982,2.389,0.004
11/09/1982,2.389,0.001
11/10/1982,2.390,0.000
11/11/1982,2.394,0.000
11/12/1982,2.406,0.000
11/13/1982,2.878,0.001
11/14/1982,2.887,0.007
11/15/1982,2.891,0.008
11/16/1982,2.891,0.008
11/17/1982,2.891,0.005
11/18/1982,2.894,0.001
11/19/1982,2.898,0.000
11/20/1982,2.909,0.000
11/21/1982,3.154,0.000
11/22/1982,3.510,0.000
11/23/1982,3.802,0.000
11/24/1982,3.969,0.000
11/25/1982,4.058,0.018
11/26/1982,4.064,0.019
11/27/1982,4.278,0.007
11/28/1982,4.348,0.025
11/29/1982,5.250,0.007
11/30/1982,5.271,0.001
12/01/1982,5.443,0.000
12/02/1982,5.727,0.000
12/03/1982,5.729,0.000
12/04/1982,5.729,0.000
12/05/1982,5.731,0.000
12/06/1982,5.848,0.000
12/07/1982,5.893,0.000
12/08/1982,5.893,0.000
12/09/1982,5.901,0.000
12/10/1982,5.904,0.003
12/11/1982,5.998,0.044
12/12/1982,6.094,0.117
12/13/1982,6.095,0.118
12/14/1982,6.103,0.122
12/15/1982,6.114,0.117
12/16/1982,6.738,0.029
12/17/1982,6.780,0.031
12/18/1982,6.785,0.035
12/19/1982,6.813,0.050
12/20/1982,7.054,0.242
12/21/1982,7.165,0.315
12/22/1982,7.180,0.323
12/23/1982,7.380,0.333
12/24/1982,7.604,0.170
12/25/1982,7.670,0.069
12/26/1982,7.795,0.011
12/27/1982,8.019,0.002
12/28/1982,8.100,0.000
12/29/1982,8.109,0.000
12/30/1982,8.109,0.000
12/31/1982,8.109,0.000
01/01/1983,8.109,0.000
01/02/1983,8.109,0.000
01/03/1983,8.109,0.000
01/04/1983,8.109,0.000
01/05/1983,8.109,0.000
01/06/1983,8.109,0.000
01/07/1983,8.109,0.000
01/08/1983,8.109,0.000
01/09/1983,8.116,0.002
01/10/1983,8.145,0.006
01/11/1983,8.352,0.003
01/12/1983,8.396,0.015
01/13/1983,8.453,0.058
01/14/1983,8.456,0.061
01/15/1983,8.677,0.142
01/16/1983,8.845,0.302
01/17/1983,8.860,0.315
01/18/1983,8.917,0.364
01/19/1983,8.931,0.375
01/20/1983,8.932,0.376
01/21/1983,8.936,0.378
01/22/1983,9.064,0.384
01/23/1983,9.342,0.376
01/24/1983,9.470,0.352
01/25/1983,9.490,0.358
01/26/1983,9.496,0.361
01/27/1983,9.497,0.361
01/28/1983,9.498,0.362
01/29/1983,9.501,0.361
01/30/1983,9.561,0.300
01/31/1983,9.793,0.266
02/01/1983,9.793,0.264
02/02/1983,9.865,0.242
02/03/1983,10.298,0.199
02/04/1983,10.380,0.296
02/05/1983,10.443,0.364
02/06/1983,10.471,0.382
02/07/1983,10.580,0.448
02/08/1983,10.668,0.536
02/09/1983,10.672,0.539
02/10/1983,10.677,0.542
02/11/1983,10.950,0.822
02/12/1983,11.514,1.415
02/13/1983,11.514,1.415
02/14/1983,11.514,1.415
02/15/1983,11.514,1.378
02/16/1983,11.514,1.289
02/17/1983,11.514,0.918
02/18/1983,11.514,0.818
02/19/1983,11.514,0.750
02/20/1983,11.514,0.611
02/21/1983,11.514,0.451
02/22/1983,11.514,0.344
02/23/1983,11.535,0.250
02/24/1983,11.555,0.242
02/25/1983,11.576,0.246
02/26/1983,11.682,0.361
02/27/1983,11.682,0.361
02/28/1983,11.682,0.329
03/01/1983,11.682,0.236
03/02/1983,11.682,0.207
03/03/1983,11.682,0.175
03/04/1983,11.682,0.121
03/05/1983,11.682,0.073
03/06/1983,11.686,0.036
03/07/1983,11.867,0.020
03/08/1983,12.163,0.006
03/09/1983,12.455,0.004
03/10/1983,12.792,0.010
03/11/1983,12.910,0.023
03/12/1983,13.124,0.136
03/13/1983,13.132,0.140
03/14/1983,13.132,0.060
03/15/1983,13.132,0.011
03/16/1983,13.132,0.006
03/17/1983,13.132,0.005
03/18/1983,13.202,0.005
03/19/1983,13.935,0.004
03/20/1983,14.164,0.004
03/21/1983,14.524,0.002
03/22/1983,14.808,0.098
03/23/1983,14.832,0.114
03/24/1983,14.832,0.114
03/25/1983,14.832,0.114
03/26/1983,14.836,0.117
03/27/1983,15.106,0.088
03/28/1983,15.647,0.068
03/29/1983,15.778,0.084
03/30/1983,15.788,0.086
03/31/1983,15.807,0.087
04/01/1983,15.816,0.086
04/02/1983,15.823,0.058
04/03/1983,16.156,0.031
04/04/1983,16.273,0.022
04/05/1983,16.290,0.017
04/06/1983,16.303,0.007
04/07/1983,16.599,0.003
04/08/1983,16.940,0.001
04/09/1983,17.396,0.000
04/10/1983,17.981,0.000
04/11/1983,18.153,0.000
04/12/1983,18.259,0.001
04/13/1983,18.259,0.000
04/14/1983,18.289,0.000
04/15/1983,19.186,0.000
04/16/1983,19.244,0.000
04/17/1983,19.244,0.000
04/18/1983,19.284,0.012
04/19/1983,19.297,0.017
04/20/1983,19.344,0.049
04/21/1983,19.344,0.032
04/22/1983,19.344,0.006
04/23/1983,19.363,0.000
04/24/1983,20.181,0.000
04/25/1983,20.889,0.024
04/26/1983,20.889,0.019
04/27/1983,20.889,0.001
04/28/1983,20.889,0.000
04/29/1983,20.954,0.000
04/30/1983,21.401,0.000
05/01/1983,21.429,0.000
05/02/1983,21.765,0.000
05/03/1983,22.315,0.000
05/04/1983,23.083,0.000
05/05/1983,23.144,0.000
05/06/1983,23.144,0.000
05/07/1983,23.148,0.000
05/08/1983,23.191,0.000
05/09/1983,23.376,0.000
05/10/1983,23.376,0.000
05/11/1983,23.376,0.000
05/12/1983,23.376,0.000
05/13/1983,23.376,0.000
05/14/1983,23.377,0.000
05/15/1983,23.874,0.000
05/16/1983,24.839,0.000
05/17/1983,25.321,0.000
05/18/1983,25.321,0.000
05/19/1983,25.331,0.000
05/20/1983,25.800,0.000
05/21/1983,25.802,0.000
05/22/1983,26.358,0.000
05/23/1983,26.980,0.000
05/24/1983,27.084,0.000
05/25/1983,27.084,0.000
05/26/1983,27.087,0.000
05/27/1983,27.087,0.000
05/28/1983,27.089,0.000
05/29/1983,27.247,0.000
05/30/1983,27.826,0.000
05/31/1983,27.851,0.000
06/01/1983,27.875,0.000
06/02/1983,27.977,0.000
06/03/1983,27.977,0.000
06/04/1983,28.565,0.000
06/05/1983,28.706,0.000
06/06/1983,28.708,0.000
06/07/1983,28.804,0.000
06/08/1983,28.804,0.000
06/09/1983,28.804,0.000
06/10/1983,28.807,0.000
06/11/1983,28.808,0.000
06/12/1983,28.817,0.000
06/13/1983,28.828,0.000
06/14/1983,28.874,0.000
06/15/1983,28.989,0.000
06/16/1983,29.072,0.000
06/17/1983,29.125,0.000
06/18/1983,29.644,0.000
06/19/1983,29.906,0.000
06/20/1983,30.235,0.000
06/21/1983,30.570,0.000
06/22/1983,30.610,0.000
06/23/1983,30.610,0.000
06/24/1983,30.610,0.000
06/25/1983,30.611,0.000
06/26/1983,30.611,0.000
06/27/1983,30.611,0.000
06/28/1983,30.766,0.000
06/29/1983,31.160,0.000
06/30/1983,31.293,0.000
07/01/1983,31.439,0.000
07/02/1983,31.579,0.000
07/03/1983,31.591,0.000
07/04/1983,31.915,0.000
07/05/1983,32.150,0.000
07/06/1983,32.244,0.000
07/07/1983,32.245,0.000
07/08/1983,32.245,0.000
07/09/1983,32.245,0.000
07/10/1983,32.245,0.000
07/11/1983,32.245,0.000
07/12/1983,32.245,0.000
07/13/1983,32.245,0.000
07/14/1983,32.245,0.000
07/15/1983,32.250,0.000
07/16/1983,32.263,0.000
07/17/1983,32.266,0.000
07/18/1983,32.657,0.000
07/19/1983,32.703,0.000
07/20/1983,32.944,0.000
07/21/1983,33.462,0.000
07/22/1983,34.202,0.000
07/23/1983,34.208,0.000
07/24/1983,34.964,0.000
07/25/1983,34.999,0.000
07/26/1983,35.000,0.000
07/27/1983,35.000,0.000
07/28/1983,35.000,0.000
07/29/1983,35.000,0.000
07/30/1983,35.000,0.000
07/31/1983,35.000,0.000
08/01/1983,35.020,0.000
08/02/1983,35.345,0.000
08/03/1983,35.345,0.000
08/04/1983,35.345,0.000
08/05/1983,35.374,0.000
08/06/1983,35.646,0.000
08/07/1983,35.653,0.000
08/08/1983,35.653,0.000
08/09/1983,35.653,0.000
08/10/1983,35.692,0.000
08/11/1983,35.694,0.000
08/12/1983,36.118,0.000
08/13/1983,36.123,0.000
08/14/1983,36.123,0.000
08/15/1983,36.123,0.000
08/16/1983,36.123,0.000
08/17/1983,36.124,0.000
08/18/1983,36.322,0.000
08/19/1983,36.382,0.000
08/20/1983,36.382,0.000
08/21/1983,36.387,0.000
08/22/1983,36.389,0.000
08/23/1983,36.583,0.000
08/24/1983,36.728,0.000
08/25/1983,36.743,0.000
08/26/1983,36.743,0.000
08/27/1983,36.744,0.000
08/28/1983,37.225,0.000
08/29/1983,37.518,0.000
08/30/1983,37.521,0.000
08/31/1983,37.687,0.000
09/01/1983,38.140,0.000
09/02/1983,38.140,0.000
09/03/1983,38.140,0.000
09/04/1983,38.141,0.000
09/05/1983,38.144,0.000
09/06/1983,38.214,0.000
09/07/1983,38.234,0.000
09/08/1983,38.242,0.000
09/09/1983,38.242,0.000
09/10/1983,38.242,0.000
09/11/1983,38.243,0.000
09/12/1983,38.372,0.000
09/13/1983,38.988,0.000
09/14/1983,39.159,0.000
09/15/1983,39.159,0.000
09/16/1983,39.159,0.000
09/17/1983,39.530,0.000
09/18/1983,39.531,0.000
09/19/1983,39.531,0.000
09/20/1983,39.532,0.000
09/21/1983,39.566,0.000
09/22/1983,40.057,0.000
09/23/1983,40.057,0.000
09/24/1983,40.066,0.000
09/25/1983,40.066,0.000
09/26/1983,40.066,0.000
09/27/1983,40.066,0.000
09/28/1983,40.066,0.000
09/29/1983,40.066,0.000
09/30/1983,40.067,0.000
10/01/1983,0.340,0.000
10/02/1983,0.342,0.000
10/03/1983,0.344,0.000
10/04/1983,0.344,0.000
10/05/1983,0.393,0.000
10/06/1983,0.621,0.000
10/07/1983,0.621,0.000
10/08/1983,0.621,0.000
10/09/1983,0.621,0.000
10/10/1983,0.621,0.000
10/11/1983,0.626,0.000
10/12/1983,0.899,0.000
10/13/1983,0.943,0.000
10/14/1983,1.472,0.000
10/15/1983,1.472,0.000
10/16/1983,1.472,0.000
10/17/1983,1.472,0.000
10/18/1983,1.473,0.000
10/19/1983,2.007,0.000
10/20/1983,2.066,0.000
10/21/1983,2.715,0.000
10/22/1983,2.898,0.000
10/23/1983,3.765,0.000
10/24/1983,4.053,0.000
10/25/1983,4.106,0.000
10/26/1983,4.201,0.000
10/27/1983,4.308,0.000
10/28/1983,4.309,0.000
10/29/1983,4.309,0.000
10/30/1983,4.309,0.000
10/31/1983,4.309,0.000
11/01/1983,4.309,0.000
11/02/1983,4.310,0.000
11/03/1983,4.732,0.000
11/04/1983,4.879,0.000
11/05/1983,5.001,0.025
11/06/1983,5.162,0.060
11/07/1983,5.164,0.037
11/08/1983,5.164,0.023
11/09/1983,5.164,0.003
11/10/1983,5.231,0.000
11/11/1983,5.948,0.002
11/12/1983,6.261,0.148
11/13/1983,6.270,0.153
11/14/1983,6.270,0.153
11/15/1983,6.383,0.139
11/16/1983,6.665,0.081
11/17/1983,6.973,0.209
11/18/1983,6.998,0.220
11/19/1983,7.050,0.118
11/20/1983,7.069,0.043
11/21/1983,7.212,0.016
11/22/1983,7.212,0.011
11/23/1983,7.212,0.004
11/24/1983,7.334,0.000
11/25/1983,7.738,0.075
11/26/1983,7.740,0.072
11/27/1983,7.740,0.034
11/28/1983,8.314,0.021
11/29/1983,8.698,0.011
11/30/1983,8.698,0.011
12/01/1983,8.699,0.012
12/02/1983,8.702,0.014
12/03/1983,8.922,0.090
12/04/1983,9.410,0.096
12/05/1983,9.583,0.065
12/06/1983,9.745,0.044
12/07/1983,10.394,0.168
12/08/1983,10.436,0.198
12/09/1983,10.459,0.207
12/10/1983,10.605,0.194
12/11/1983,10.605,0.163
12/12/1983,10.880,0.141
12/13/1983,11.069,0.114
12/14/1983,11.110,0.103
12/15/1983,11.209,0.073
12/16/1983,11.247,0.072
12/17/1983,11.254,0.077
12/18/1983,11.254,0.077
12/19/1983,11.257,0.080
12/20/1983,11.271,0.089
12/21/1983,11.272,0.090
12/22/1983,12.022,0.282
12/23/1983,12.204,0.343
12/24/1983,12.330,0.507
12/25/1983,12.344,0.516
12/26/1983,12.347,0.519
12/27/1983,12.348,0.519
12/28/1983,12.405,0.549
12/29/1983,12.971,0.633
12/30/1983,12.983,0.639
12/31/1983,12.983,0.639
01/01/1984,12.983,0.639
01/02/1984,12.983,0.639
01/03/1984,13.010,0.659
01/04/1984,13.010,0.650
01/05/1984,13.060,0.583
01/06/1984,13.076,0.544
01/07/1984,13.130,0.580
01/08/1984,13.137,0.587
01/09/1984,13.138,0.587
01/10/1984,13.189,0.578
01/11/1984,13.479,0.970
01/12/1984,13.479,0.970
01/13/1984,13.480,0.970
01/14/1984,13.481,0.971
01/15/1984,13.483,0.971
01/16/1984,13.500,0.980
01/17/1984,13.565,1.030
01/18/1984,13.641,1.108
01/19/1984,13.877,1.416
01/20/1984,13.878,1.416
01/21/1984,13.878,1.416
01/22/1984,13.878,1.416
01/23/1984,13.878,1.417
01/24/1984,14.113,1.484
01/25/1984,14.186,1.043
01/26/1984,14.186,0.965
01/27/1984,14.186,0.864
01/28/1984,14.187,0.847
01/29/1984,14.221,0.885
01/30/1984,14.320,0.986
01/31/1984,14.667,1.522
02/01/1984,14.684,1.539
02/02/1984,14.684,1.539
02/03/1984,14.684,1.487
02/04/1984,14.769,1.308
02/05/1984,14.810,1.222
02/06/1984,14.879,1.291
02/07/1984,14.947,1.383
02/08/1984,14.960,1.393
02/09/1984,14.960,1.393
02/10/1984,14.963,1.333
02/11/1984,15.107,1.086
02/12/1984,15.182,0.908
02/13/1984,15.190,0.622
02/14/1984,15.671,0.451
02/15/1984,16.195,0.390
02/16/1984,16.195,0.350
02/17/1984,16.195,0.265
02/18/1984,16.281,0.192
02/19/1984,16.312,0.151
02/20/1984,16.449,0.114
02/21/1984,16.450,0.114
02/22/1984,16.450,0.114
02/23/1984,16.450,0.102
02/24/1984,16.953,0.280
02/25/1984,17.174,0.205
02/26/1984,17.277,0.291
02/27/1984,17.281,0.293
02/28/1984,17.415,0.333
02/29/1984,17.744,0.633
03/01/1984,17.842,0.724
03/02/1984,17.849,0.728
03/03/1984,17.854,0.730
03/04/1984,17.854,0.731
03/05/1984,18.065,0.790
03/06/1984,18.262,0.589
03/07/1984,18.264,0.590
03/08/1984,18.266,0.591
03/09/1984,18.553,1.024
03/10/1984,18.554,1.025
03/11/1984,18.562,1.029
03/12/1984,18.565,1.031
03/13/1984,18.672,1.079
03/14/1984,19.013,0.895
03/15/1984,19.024,0.897
03/16/1984,19.034,0.517
03/17/1984,19.039,0.386
03/18/1984,19.097,0.334
03/19/1984,19.098,0.276
03/20/1984,19.098,0.203
03/21/1984,19.497,0.136
03/22/1984,20.037,0.250
03/23/1984,20.197,0.339
03/24/1984,20.201,0.338
03/25/1984,20.244,0.233
03/26/1984,20.984,0.187
03/27/1984,20.986,0.158
03/28/1984,21.152,0.138
03/29/1984,22.167,0.465
03/30/1984,22.280,0.508
03/31/1984,22.338,0.515
04/01/1984,22.338,0.474
04/02/1984,22.338,0.406
04/03/1984,22.338,0.301
04/04/1984,22.667,0.217
04/05/1984,23.759,0.176
04/06/1984,23.878,0.155
04/07/1984,24.111,0.200
04/08/1984,24.113,0.187
04/09/1984,24.113,0.150
04/10/1984,24.113,0.141
04/11/1984,24.113,0.133
04/12/1984,24.113,0.121
04/13/1984,24.129,0.096
04/14/1984,24.166,0.067
04/15/1984,24.961,0.045
04/16/1984,25.242,0.032
04/17/1984,25.329,0.026
04/18/1984,25.499,0.024
04/19/1984,25.665,0.024
04/20/1984,25.715,0.022
04/21/1984,25.715,0.019
04/22/1984,25.784,0.017
04/23/1984,26.651,0.033
04/24/1984,27.063,0.019
04/25/1984,27.181,0.019
04/26/1984,27.182,0.013
04/27/1984,27.182,0.006
04/28/1984,27.182,0.002
04/29/1984,27.675,0.001
04/30/1984,27.681,0.000
05/01/1984,27.691,0.000
05/02/1984,27.691,0.000
05/03/1984,27.701,0.000
05/04/1984,28.250,0.000
05/05/1984,28.404,0.000
05/06/1984,28.546,0.000
05/07/1984,28.710,0.000
05/08/1984,28.875,0.000
05/09/1984,29.341,0.000
05/10/1984,29.380,0.000
05/11/1984,29.384,0.000
05/12/1984,29.805,0.000
05/13/1984,29.933,0.000
05/14/1984,30.035,0.000
05/15/1984,30.036,0.000
05/16/1984,30.036,0.000
05/17/1984,30.036,0.000
05/18/1984,30.036,0.000
05/19/1984,30.067,0.000
05/20/1984,30.170,0.000
05/21/1984,30.276,0.000
05/22/1984,30.281,0.000
05/23/1984,30.320,0.000
05/24/1984,30.661,0.000
05/25/1984,30.661,0.000
05/26/1984,30.662,0.000
05/27/1984,30.737,0.000
05/28/1984,30.960,0.000
05/29/1984,32.385,0.000
05/30/1984,32.419,0.000
05/31/1984,32.419,0.000
06/01/1984,32.420,0.000
06/02/1984,32.470,0.000
06/03/1984,32.470,0.000
06/04/1984,32.481,0.000
06/05/1984,32.481,0.000
06/06/1984,32.491,0.000
06/07/1984,32.492,0.000
06/08/1984,32.492,0.000
06/09/1984,32.492,0.000
06/10/1984,32.492,0.000
06/11/1984,32.497,0.000
06/12/1984,32.500,0.000
06/13/1984,32.535,0.000
06/14/1984,32.711,0.000
06/15/1984,32.711,0.000
06/16/1984,32.714,0.000
06/17/1984,32.735,0.000
06/18/1984,32.885,0.000
06/19/1984,33.473,0.000
06/20/1984,33.473,0.000
06/21/1984,33.473,0.000
06/22/1984,33.473,0.000
06/23/1984,33.768,0.000
06/24/1984,33.876,0.000
06/25/1984,34.416,0.000
06/26/1984,34.446,0.000
06/27/1984,34.448,0.000
06/28/1984,34.617,0.000
06/29/1984,34.642,0.000
06/30/1984,35.204,0.000
07/01/1984,36.101,0.000
07/02/1984,36.274,0.000
07/03/1984,36.348,0.000
07/04/1984,36.366,0.000
07/05/1984,36.512,0.000